IK8SCR Weather Reports


time (UTC)temp
F
wind
direction
speed
knots
gust
knots
rain 1hr
in
rain 24hr
in
rain mn
in
humidity
%
barometer
mb
20260507234504 65 0 0.0 0.0 0.00 0.04 0.03 3 1011.8
20260507234006 65 0 0.0 0.0 0.00 0.05 0.03 6 1011.8
20260507233006 65 0 0.0 0.0 0.00 0.06 0.03 10 1011.9
20260507232504 66 0 0.0 0.0 0.00 0.06 0.03 10 1011.9
20260507232005 66 0 0.0 0.0 0.00 0.06 0.03 11 1012.0
20260507231504 66 0 0.0 0.0 0.00 0.06 0.03 12 1012.0
20260507231006 66 0 0.0 0.0 0.00 0.06 0.03 14 1011.9
20260507230007 66 0 0.0 0.0 0.00 0.06 0.03 10 1012.0
20260507225505 66 0 0.0 0.0 0.00 0.06 0.03 9 1012.0
20260507225007 66 0 0.0 0.0 0.00 0.06 0.03 8 1012.0
20260507224505 66 0 0.0 0.0 0.00 0.06 0.03 8 1012.0
20260507224007 66 0 0.0 0.0 0.00 0.06 0.03 8 1012.0
20260507223505 67 0 0.0 0.0 0.00 0.06 0.03 8 1012.1
20260507223007 66 0 0.0 0.0 0.00 0.06 0.03 5 1012.1
20260507222505 66 0 0.0 0.0 0.00 0.06 0.03 4 1012.0
20260507222007 67 0 0.0 0.0 0.00 0.06 0.03 4 1011.9
20260507221504 67 0 0.0 0.0 0.00 0.06 0.03 5 1011.9
20260507221006 67 0 0.0 0.0 0.00 0.06 0.03 6 1011.9
20260507220504 67 0 0.0 0.0 0.00 0.06 0.03 6 1011.9
20260507220005 67 0 0.0 0.0 0.00 0.06 0.03 6 1011.8
20260507215007 67 0 0.0 0.0 0.00 0.06 0.03 5 1012.0
20260507214505 67 0 0.0 0.0 0.00 0.06 0.03 5 1012.0
20260507214006 67 0 0.0 0.0 0.00 0.06 0.03 5 1012.0
20260507213504 67 0 0.0 0.0 0.00 0.06 0.03 5 1012.1
20260507213007 68 0 0.0 0.0 0.00 0.06 0.03 3 1012.1
20260507212505 68 0 0.0 0.0 0.00 0.06 0.03 3 1012.1
20260507211505 68 0 0.0 0.0 0.00 0.06 0.03 3 1012.0
20260507210504 67 0 0.0 0.0 0.00 0.06 0.03 3 1012.0
20260507210005 67 0 0.0 0.0 0.00 0.06 0.03 3 1012.0
20260507205504 67 0 0.0 0.0 0.00 0.06 0.03 3 1012.0
20260507205007 67 0 0.0 0.0 0.00 0.06 0.03 3 1012.1
20260507204504 67 0 0.0 0.0 0.00 0.06 0.03 3 1012.1
20260507204007 66 0 0.0 0.0 0.00 0.06 0.03 3 1012.1
20260507203505 65 0 0.0 0.0 0.00 0.06 0.03 3 1012.3
20260507203007 65 0 0.0 0.0 0.00 0.06 0.03 3 1012.3
20260507202504 64 0 0.0 0.0 0.00 0.06 0.03 3 1012.5
20260507202006 64 0 0.0 0.0 0.00 0.06 0.03 3 1012.4
20260507201504 64 0 0.0 0.0 0.00 0.06 0.03 3 1012.4
20260507201007 65 0 0.0 0.0 0.00 0.06 0.03 3 1012.5
20260507200506 65 0 0.0 0.0 0.00 0.06 0.03 3 1012.5
20260507200005 65 0 0.0 0.0 0.00 0.06 0.03 3 1012.5
20260507195504 65 0 0.0 0.0 0.00 0.06 0.03 3 1012.4
20260507195006 65 0 0.0 0.0 0.00 0.06 0.03 3 1012.5
20260507194505 65 0 0.0 0.0 0.00 0.06 0.03 3 1012.5
20260507194007 65 0 0.0 0.0 0.00 0.06 0.03 3 1012.5
20260507193505 65 0 0.0 0.0 0.00 0.07 0.03 3 1012.4
20260507192504 65 0 0.0 0.0 0.00 0.07 0.03 3 1012.6
20260507192007 65 0 0.0 0.0 0.00 0.07 0.03 3 1012.6
20260507191505 65 0 0.0 0.0 0.00 0.07 0.03 3 1012.7
20260507191007 65 0 0.0 0.0 0.00 0.07 0.03 3 1012.7
20260507190504 65 0 0.0 0.0 0.00 0.07 0.03 3 1012.8
20260507190005 65 0 0.0 0.0 0.00 0.07 0.03 3 1012.7
20260507185007 66 0 0.0 0.0 0.00 0.07 0.03 3 1012.6
20260507184504 66 0 0.0 0.0 0.00 0.07 0.03 3 1012.6
20260507184007 66 0 0.0 0.0 0.00 0.07 0.03 3 1012.5
20260507183504 66 0 0.0 0.0 0.00 0.07 0.03 3 1012.4
20260507183006 66 0 0.0 0.0 0.00 0.07 0.03 3 1012.5
20260507182504 66 0 0.0 0.0 0.00 0.07 0.03 3 1012.4
20260507182006 66 0 0.0 0.0 0.00 0.07 0.03 3 1012.3
20260507181504 66 0 0.0 0.0 0.00 0.07 0.03 3 1012.2
20260507181007 66 0 0.0 0.0 0.00 0.07 0.03 3 1012.3
20260507180504 67 0 0.0 0.0 0.00 0.07 0.03 3 1012.4
20260507180004 67 0 0.0 0.0 0.00 0.07 0.03 3 1012.4
20260507174504 67 0 0.0 0.0 0.00 0.07 0.03 3 1012.4
20260507173504 67 0 0.0 0.0 0.00 0.07 0.03 3 1012.4
20260507173007 68 0 0.0 0.0 0.00 0.07 0.03 3 1012.5
20260507172504 68 0 0.0 0.0 0.00 0.07 0.03 6 1012.5
20260507172007 68 0 0.0 0.0 0.00 0.07 0.03 10 1012.4
20260507171504 68 0 0.0 0.0 0.00 0.07 0.03 14 1012.4
20260507171007 68 0 0.0 0.0 0.00 0.07 0.03 12 1012.5
20260507170005 69 0 0.0 0.0 0.00 0.07 0.03 9 1012.5
20260507165504 69 0 0.0 0.0 0.00 0.07 0.03 5 1012.5
20260507165007 69 0 0.0 0.0 0.00 0.07 0.03 6 1012.4
20260507164505 70 0 0.0 0.0 0.00 0.07 0.03 6 1012.4
20260507164007 70 0 0.0 0.0 0.00 0.07 0.03 9 1012.5
20260507163007 71 0 0.0 0.0 0.00 0.07 0.03 13 1012.5
20260507162504 71 0 0.0 0.0 0.00 0.07 0.03 18 1012.5
20260507162007 71 0 0.0 0.0 0.00 0.07 0.03 22 1012.5
20260507161504 72 0 0.0 0.0 0.00 0.07 0.03 17 1012.6
20260507161006 72 0 0.0 0.0 0.00 0.07 0.03 23 1012.7
20260507160504 72 0 0.0 0.0 0.00 0.07 0.03 17 1012.6
20260507160004 73 0 0.0 0.0 0.00 0.07 0.03 19 1012.7
20260507155504 73 0 0.0 0.0 0.00 0.07 0.03 27 1012.7
20260507155006 74 0 0.0 0.0 0.00 0.07 0.03 32 1012.7
20260507154504 74 0 0.0 0.0 0.00 0.07 0.03 34 1012.7
20260507154009 74 0 0.0 0.0 0.00 0.07 0.03 36 1012.7
20260507153505 75 0 0.0 0.0 0.00 0.07 0.03 37 1012.7
20260507152504 75 0 0.0 0.0 0.00 0.07 0.03 38 1012.7
20260507152006 75 0 0.0 0.0 0.00 0.07 0.03 38 1012.7
20260507151505 75 0 0.0 0.0 0.00 0.07 0.03 37 1012.7
20260507151007 75 0 0.0 0.0 0.00 0.07 0.03 35 1012.8
20260507150504 75 0 0.0 0.0 0.00 0.07 0.03 39 1012.9
20260507150005 75 0 0.0 0.0 0.00 0.07 0.03 38 1013.1
20260507145504 75 0 0.0 0.0 0.00 0.07 0.03 34 1013.0
20260507145007 74 0 0.0 0.0 0.00 0.07 0.03 34 1013.1
20260507144504 74 0 0.0 0.0 0.00 0.07 0.03 32 1013.0
20260507144006 74 0 0.0 0.0 0.00 0.07 0.03 32 1013.0
20260507143504 74 0 0.0 0.0 0.00 0.07 0.03 34 1012.9
20260507143006 74 0 0.0 0.0 0.00 0.07 0.03 37 1012.9
20260507142504 74 0 0.0 0.0 0.00 0.07 0.03 32 1012.9
20260507142006 75 0 0.0 0.0 0.00 0.07 0.03 35 1013.0
20260507141504 75 0 0.0 0.0 0.00 0.07 0.03 30 1013.1
20260507141007 75 0 0.0 0.0 0.00 0.07 0.03 34 1013.1
20260507140504 76 0 0.0 0.0 0.00 0.07 0.03 37 1013.2
20260507140004 76 0 0.0 0.0 0.00 0.07 0.03 35 1013.3
20260507135504 76 0 0.0 0.0 0.00 0.07 0.03 35 1013.4
20260507134504 76 0 0.0 0.0 0.00 0.07 0.03 36 1013.4
20260507134006 76 0 0.0 0.0 0.00 0.07 0.03 41 1013.5
20260507133504 77 0 0.0 0.0 0.00 0.07 0.03 41 1013.6
20260507133006 78 0 0.0 0.0 0.00 0.07 0.03 45 1013.6
20260507132504 78 0 0.0 0.0 0.00 0.07 0.03 44 1013.7
20260507131504 78 0 0.0 0.0 0.00 0.07 0.03 40 1013.7
20260507131006 78 0 0.0 0.0 0.00 0.07 0.03 38 1013.8
20260507130504 78 0 0.0 0.0 0.00 0.07 0.03 45 1013.9
20260507130004 78 0 0.0 0.0 0.00 0.07 0.03 42 1013.9
20260507125504 78 0 0.0 0.0 0.00 0.07 0.03 43 1013.9
20260507125006 78 0 0.0 0.0 0.00 0.07 0.03 40 1014.0
20260507124504 78 0 0.0 0.0 0.00 0.07 0.03 41 1014.0
20260507124006 78 0 0.0 0.0 0.00 0.07 0.03 39 1014.2
20260507123504 78 0 0.0 0.0 0.00 0.07 0.03 35 1014.1
20260507123006 77 0 0.0 0.0 0.00 0.07 0.03 41 1014.2
20260507122006 78 0 0.0 0.0 0.00 0.07 0.03 44 1014.4
20260507121006 77 0 0.0 0.0 0.00 0.07 0.03 41 1014.4
20260507120004 77 0 0.0 0.0 0.00 0.07 0.03 40 1014.4
20260507115006 77 0 0.0 0.0 0.00 0.07 0.03 39 1014.3
20260507114504 77 0 0.0 0.0 0.00 0.07 0.03 41 1014.3
20260507114006 77 0 0.0 0.0 0.00 0.07 0.03 40 1014.4
20260507113503 77 0 0.0 0.0 0.00 0.07 0.03 37 1014.5
20260507112006 76 0 0.0 0.0 0.00 0.07 0.03 32 1014.6
20260507111506 76 0 0.0 0.0 0.00 0.07 0.03 25 1014.7
20260507110504 76 0 0.0 0.0 0.00 0.07 0.03 16 1014.9
20260507110004 75 0 0.0 0.0 0.00 0.07 0.03 26 1015.0
20260507105504 75 0 0.0 0.0 0.00 0.07 0.03 21 1015.0
20260507105007 75 0 0.0 0.0 0.00 0.07 0.03 9 1015.0
20260507104505 74 0 0.0 0.0 0.00 0.07 0.03 13 1015.1
20260507104007 74 0 0.0 0.0 0.00 0.07 0.03 12 1015.2
20260507103504 74 0 0.0 0.0 0.00 0.07 0.03 17 1015.2
20260507102504 75 0 0.0 0.0 0.00 0.07 0.03 25 1015.3
20260507102007 74 0 0.0 0.0 0.00 0.07 0.03 27 1015.4
20260507101504 74 0 0.0 0.0 0.00 0.07 0.03 24 1015.4
20260507101006 74 0 0.0 0.0 0.00 0.07 0.03 26 1015.4
20260507100505 73 0 0.0 0.0 0.00 0.07 0.03 31 1015.5
20260507095505 73 0 0.0 0.0 0.00 0.07 0.03 29 1015.3
20260507095007 73 0 0.0 0.0 0.00 0.07 0.03 30 1015.2
20260507094504 73 0 0.0 0.0 0.00 0.07 0.03 30 1015.2
20260507094006 73 0 0.0 0.0 0.00 0.07 0.03 28 1015.2
20260507093504 73 0 0.0 0.0 0.00 0.07 0.03 24 1015.2
20260507093006 73 0 0.0 0.0 0.00 0.07 0.03 19 1015.3
20260507092504 73 0 0.0 0.0 0.00 0.07 0.03 18 1015.4
20260507092007 73 0 0.0 0.0 0.00 0.07 0.03 12 1015.4
20260507091504 73 0 0.0 0.0 0.00 0.07 0.03 16 1015.5
20260507090505 72 0 0.0 0.0 0.00 0.07 0.03 3 1015.3
20260507085505 71 0 0.0 0.0 0.00 0.07 0.03 6 1015.3
20260507085007 71 0 0.0 0.0 0.00 0.07 0.03 3 1015.3
20260507084505 70 0 0.0 0.0 0.00 0.07 0.03 3 1015.3
20260507083505 70 0 0.0 0.0 0.00 0.07 0.03 3 1015.2
20260507083006 69 0 0.0 0.0 0.00 0.07 0.03 3 1015.4
20260507082504 69 0 0.0 0.0 0.00 0.07 0.03 3 1015.4
20260507081505 68 0 0.0 0.0 0.00 0.07 0.03 3 1015.5
20260507081007 68 0 0.0 0.0 0.00 0.07 0.03 3 1015.6
20260507080005 67 0 0.0 0.0 0.00 0.07 0.03 3 1015.6
20260507075507 67 0 0.0 0.0 0.00 0.07 0.03 3 1015.6
20260507075007 67 0 0.0 0.0 0.00 0.07 0.03 3 1015.5
20260507074508 67 0 0.0 0.0 0.00 0.07 0.03 3 1015.6
20260507073505 66 0 0.0 0.0 0.00 0.07 0.03 3 1015.6
20260507073006 66 0 0.0 0.0 0.00 0.07 0.03 3 1015.6
20260507072504 65 0 0.0 0.0 0.00 0.07 0.03 3 1015.7
20260507072006 65 0 0.0 0.0 0.00 0.07 0.03 3 1015.7
20260507071504 65 0 0.0 0.0 0.00 0.07 0.03 3 1015.6
20260507071006 64 0 0.0 0.0 0.00 0.07 0.03 3 1015.6
20260507070504 64 0 0.0 0.0 0.00 0.07 0.03 3 1015.6
20260507065504 63 0 0.0 0.0 0.00 0.07 0.03 3 1015.6
20260507065007 62 0 0.0 0.0 0.00 0.07 0.03 3 1015.5
20260507064505 62 0 0.0 0.0 0.00 0.07 0.03 3 1015.5
20260507064007 62 0 0.0 0.0 0.00 0.07 0.03 3 1015.5
20260507063505 61 0 0.0 0.0 0.00 0.07 0.03 3 1015.5
20260507063006 61 0 0.0 0.0 0.00 0.07 0.03 3 1015.5
20260507062006 61 0 0.0 0.0 0.00 0.07 0.03 3 1015.6
20260507061504 61 0 0.0 0.0 0.00 0.07 0.03 3 1015.5
20260507061006 60 0 0.0 0.0 0.00 0.07 0.03 3 1015.6
20260507060504 60 0 0.0 0.0 0.00 0.07 0.03 3 1015.6
20260507060004 60 0 0.0 0.0 0.00 0.07 0.03 3 1015.5
20260507055006 60 0 0.0 0.0 0.00 0.07 0.03 3 1015.6
20260507054007 60 0 0.0 0.0 0.00 0.07 0.03 3 1015.5
20260507053505 60 0 0.0 0.0 0.00 0.07 0.03 3 1015.5
20260507053007 60 0 0.0 0.0 0.00 0.07 0.03 3 1015.5
20260507052504 60 0 0.0 0.0 0.00 0.07 0.03 3 1015.5
20260507052006 59 0 0.0 0.0 0.00 0.07 0.03 3 1015.5
20260507051504 59 0 0.0 0.0 0.00 0.07 0.03 3 1015.6
20260507051006 59 0 0.0 0.0 0.00 0.07 0.03 3 1015.5
20260507050504 58 0 0.0 0.0 0.00 0.07 0.03 3 1015.4
20260507050005 58 0 0.0 0.0 0.00 0.07 0.03 3 1015.4
20260507045505 57 0 0.0 0.0 0.00 0.07 0.03 3 1015.2
20260507045007 57 0 0.0 0.0 0.00 0.07 0.03 3 1015.2
20260507044006 57 0 0.0 0.0 0.00 0.07 0.03 3 1015.1
20260507043504 57 0 0.0 0.0 0.00 0.07 0.03 3 1015.0
20260507043006 57 0 0.0 0.0 0.00 0.07 0.03 3 1015.0
20260507042504 57 0 0.0 0.0 0.00 0.07 0.03 3 1014.9
20260507042006 57 0 0.0 0.0 0.00 0.07 0.03 3 1014.8
20260507041504 57 0 0.0 0.0 0.00 0.07 0.03 3 1014.9
20260507040504 57 0 0.0 0.0 0.00 0.07 0.03 3 1014.8
20260507040004 57 0 0.0 0.0 0.00 0.07 0.03 3 1014.8
20260507035504 57 0 0.0 0.0 0.00 0.07 0.03 3 1014.8
20260507035006 58 0 0.0 0.0 0.00 0.07 0.03 3 1014.9
20260507034505 58 0 0.0 0.0 0.00 0.07 0.03 3 1014.9
20260507034006 58 0 0.0 0.0 0.00 0.07 0.03 3 1015.0
20260507033504 58 0 0.0 0.0 0.00 0.07 0.03 3 1015.0
20260507033006 58 0 0.0 0.0 0.00 0.07 0.03 3 1015.1
20260507032504 58 0 0.0 0.0 0.00 0.07 0.03 3 1015.2
20260507032007 58 0 0.0 0.0 0.00 0.07 0.03 3 1015.2
20260507031504 58 0 0.0 0.0 0.00 0.07 0.03 3 1015.0
20260507031007 58 0 0.0 0.0 0.01 0.07 0.03 3 1015.0
20260507030504 59 0 0.0 0.0 0.01 0.07 0.03 3 1014.9
20260507030004 59 0 0.0 0.0 0.01 0.07 0.03 3 1014.6
20260507025504 59 0 0.0 0.0 0.01 0.07 0.03 3 1014.4
20260507025006 59 0 0.0 0.0 0.01 0.07 0.03 3 1014.3
20260507024505 59 0 0.0 0.0 0.02 0.07 0.03 3 1014.4
20260507024007 59 0 0.0 0.0 0.02 0.07 0.03 3 1014.3
20260507023504 59 0 0.0 0.0 0.02 0.07 0.03 3 1014.4
20260507023006 58 0 0.0 0.0 0.02 0.07 0.03 3 1014.3
20260507022504 58 0 0.0 0.0 0.02 0.07 0.03 3 1014.5
20260507022006 58 0 0.0 0.0 0.02 0.07 0.03 3 1014.7
20260507021504 58 0 0.0 0.0 0.02 0.07 0.03 3 1014.9
20260507021006 58 0 0.0 0.0 0.01 0.06 0.02 3 1014.8
20260507020004 58 0 0.0 0.0 0.01 0.06 0.02 3 1015.0
20260507015505 58 0 0.0 0.0 0.01 0.06 0.02 3 1015.1
20260507015006 58 0 0.0 0.0 0.01 0.06 0.02 3 1015.1
20260507013504 58 0 0.0 0.0 0.00 0.06 0.02 3 1015.0
20260507013006 58 0 0.0 0.0 0.01 0.06 0.02 3 1015.1
20260507012503 58 0 0.0 0.0 0.01 0.06 0.02 3 1015.2
20260507012006 58 0 0.0 0.0 0.02 0.06 0.02 3 1015.1
20260507011504 58 0 0.0 0.0 0.02 0.06 0.02 3 1015.2
20260507010504 58 0 0.0 0.0 0.02 0.06 0.02 3 1015.1
20260507010004 58 0 0.0 0.0 0.02 0.06 0.02 3 1015.1
20260507005504 58 0 0.0 0.0 0.02 0.06 0.02 3 1015.2
20260507005006 58 0 0.0 0.0 0.02 0.06 0.02 3 1015.2
20260507004504 58 0 0.0 0.0 0.02 0.06 0.02 3 1015.2
20260507004006 58 0 0.0 0.0 0.03 0.06 0.02 3 1015.0
20260507003006 58 0 0.0 0.0 0.03 0.05 0.01 3 1015.1
20260507002504 58 0 0.0 0.0 0.03 0.05 0.01 3 1015.2
20260507002006 58 0 0.0 0.0 0.02 0.04 0.00 3 1015.3
20260507001504 58 0 0.0 0.0 0.02 0.04 0.00 3 1015.4
20260507001006 58 0 0.0 0.0 0.02 0.04 0.00 3 1015.4
20260507000004 59 0 0.0 0.0 0.02 0.04 0.00 3 1015.4
20260506235504 59 0 0.0 0.0 0.02 0.04 0.04 3 1015.6